Location: Filler
(36.7551°N, 30.4456°E)
Time: 07:50:49
(UTC+00:00)

NOSS 2-2 (E) - Pass Details

Date: 19 June 2024
Orbit: 402 x 1749 km, 63.3° (Epoch: 22 July)

Event Time Altitude Azimuth Distance (km) Brightness Sun altitude
Exits shadow 00:36:01 42° 146° (SSE) 650 3.5 -19.4°
Maximum altitude 00:36:28 45° 120° (ESE) 607 3.5 -19.4°
Drops below altitude 10° 00:39:30 10° 46° (NE) 1,476 6.7 -19.0°
Sets 00:41:30 0° 39° (NE) 2,321 8.2 -18.7°
